CDT,Max TemperatureF,Mean TemperatureF,Min TemperatureF,Max Dew PointF,MeanDew PointF,Min DewpointF,Max Humidity, Mean Humidity, Min Humidity, Max Sea Level PressureIn, Mean Sea Level PressureIn, Min Sea Level PressureIn, Max VisibilityMiles, Mean VisibilityMiles, Min VisibilityMiles, Max Wind SpeedMPH, Mean Wind SpeedMPH, Max Gust SpeedMPH,PrecipitationIn, CloudCover, Events, WindDirDegrees
2013-7-1,79,64,50,55,49,39,95,62,24,30.29,30.24,30.20,10,9,4,12,4,17,0.00,0,,32
2013-7-2,81,66,50,57,49,40,94,61,25,30.25,30.20,30.13,10,8,5,6,2,,0.01,0,,281
2013-7-3,86,70,54,54,50,44,86,50,23,30.13,30.04,29.93,10,10,7,17,6,21,0.00,0,Thunderstorm,146
2013-7-4,92,76,60,53,49,43,73,46,18,29.98,29.92,29.84,10,10,10,17,9,24,0.00,0,,154
2013-7-5,93,78,63,62,55,49,64,45,29,29.88,29.83,29.77,10,10,7,20,11,28,0.00,1,Rain,147
2013-7-6,97,84,70,70,60,55,71,48,26,29.83,29.78,29.74,10,10,4,20,14,25,0.00,1,Rain-Thunderstorm,130
2013-7-7,92,78,65,71,66,62,92,67,38,29.99,29.89,29.80,10,9,3,16,6,22,0.00,0,Thunderstorm,96
2013-7-8,95,81,68,69,67,62,94,65,34,30.02,29.97,29.88,10,9,2,21,8,26,0.06,1,Rain-Thunderstorm,86
2013-7-9,96,81,67,73,67,64,90,64,37,30.09,29.98,29.91,10,10,10,17,9,21,0.02,0,Rain-Thunderstorm,70
2013-7-10,83,74,66,68,64,57,91,71,45,30.19,30.11,30.03,10,10,10,15,5,29,0.04,2,Rain-Thunderstorm,71
2013-7-11,92,78,64,69,66,62,94,68,43,30.10,30.02,29.92,10,9,3,20,9,25,0.00,0,Thunderstorm,142
2013-7-12,102,86,71,67,65,60,83,53,25,29.97,29.90,29.83,10,10,10,18,13,26,0.00,0,,153
2013-7-13,103,88,74,70,64,61,72,47,25,29.95,29.90,29.84,10,10,10,20,10,24,0.00,0,,145
2013-7-14,82,76,71,69,68,66,86,73,63,30.17,30.03,29.91,10,10,7,21,12,25,0.00,3,Thunderstorm,138
2013-7-15,86,72,58,66,59,52,96,63,30,30.23,30.18,30.13,10,8,1,16,6,21,0.00,0,,140
2013-7-16,86,74,63,64,61,58,94,69,40,30.30,30.24,30.20,10,9,5,21,8,31,0.00,3,,171
2013-7-17,90,75,62,64,62,58,91,63,36,30.34,30.27,30.17,10,10,10,18,8,26,0.01,2,,170
2013-7-18,95,80,67,66,62,59,85,57,30,30.20,30.08,29.94,10,10,7,24,11,32,0.00,0,,187
2013-7-19,91,80,70,69,61,53,80,54,29,30.04,30.00,29.97,10,10,10,21,9,28,0.00,0,,116
2013-7-20,86,74,62,68,64,57,96,69,44,30.07,29.97,29.89,10,9,1,31,6,40,0.00,1,Rain-Thunderstorm,108
2013-7-21,92,75,59,68,60,55,94,63,29,30.07,29.90,29.82,10,10,7,22,8,29,0.24,1,Rain-Thunderstorm,155
2013-7-22,95,80,66,69,63,54,91,57,31,29.95,29.86,29.76,10,10,7,24,8,33,0.00,0,Rain-Thunderstorm,57
2013-7-23,88,76,64,66,61,58,88,65,39,30.06,29.99,29.90,10,10,10,24,10,39,0.00,1,Rain-Thunderstorm,69
2013-7-24,88,72,57,66,62,57,97,71,38,30.16,30.10,30.03,10,7,0,12,3,,0.00,2,Fog-Thunderstorm,180
2013-7-25,79,72,66,69,64,52,94,75,44,30.11,30.06,30.02,10,9,3,16,5,21,0.89,3,Rain-Thunderstorm,172
2013-7-26,78,68,59,65,58,52,97,72,42,30.25,30.17,30.10,10,8,3,16,6,20,0.00,0,Rain,8
2013-7-27,66,62,57,56,54,50,92,79,60,30.20,30.14,30.07,10,10,10,13,6,16,0.03,5,Rain-Thunderstorm,117
2013-7-28,64,60,55,58,55,53,94,87,69,30.10,30.06,30.03,10,9,2,13,5,18,0.00,7,Rain,120
2013-7-29,69,64,59,65,62,58,97,93,85,30.07,30.01,29.97,10,5,1,14,6,,0.31,8,Rain,120
2013-7-30,81,72,63,68,65,62,97,84,59,30.24,30.12,30.06,10,6,0,16,3,25,0.00,5,Fog-Rain,85
2013-7-31,82,72,62,67,64,60,94,76,56,30.24,30.18,30.11,10,10,5,15,7,29,0.00,2,Rain-Thunderstorm,85